星链-3760 (STARLINK-3760 )

导读 | 豆包AI

STARLINK-3760是美国SpaceX公司星链(Starlink)互联网星座的组网卫星,于2022年4月21日发射升空。它运行在近地轨道,属于星链规模组网的组成部分,承担全球宽带互联网覆盖任务,为基础设施匮乏区域提供低时延高速网络,也服务移动终端接入需求,支撑星链星座持续扩容,推动全球卫星互联网服务落地。

基本信息
目录编号:
52298
目录名称:
STARLINK-3760
国际标识:
2022-041AP
轨道中心:
EARTH
卫星名称:
星链-3760
卫星全名:
星链-3760 (STARLINK-3760 )
卫星状态:
在轨 (已飞行1423 天)
发射日期:
2022-04-21 UTC
国别 :
美国 (US)
星等 :
--
轨道信息
数据来源 国际轨道数据 AOE轨道数据
星历时间 2026-03-14T17:32:19+0800
13小时前
查看轨道信息
2026-03-13T14:00:00+0800
1天前
查看轨道信息
半长轴 6917.874km 6917.874km
偏心率 0.0001444 0.000136
轨道倾角 53.217° 53.217°
近地点辐角 89.226° 85.773°
升交点赤经 77.601° 82.754°
平近点角 270.890° 158.245°
近地点 538.738km 538.796km
远地点 540.736km 540.678km
周期 95.437分钟 95.437分钟
每日圈数 15.088421 15.088424
详细信息
固有亮度:
5
最大亮度:
2.5
卫星平台:
Starlink v1.5
覆盖范围:
全球
运营商:
太空探索技术公司
运营商所在国:
美国
制造商(研发单位):
太空探索技术公司
制造商所在国:
美国
使用方式:
暂无
卫星简介
星链(Starlink)计划是由太空探索技术公司(SpaceX)提出的一个巨型低轨卫星互联网星座项目,计划在2019年至2024年间在太空搭建由约1.2万颗卫星组成的“星链”网络,其中1584颗将部署在地球上空550千米处的近地轨道,并从2020年开始工作。该卫星仍在工作。
2D轨道图
3D轨道图
轨道高度分析图
轨道倾角分析图
轨道综合分析图
查看轨道综合分析图